This demonstration page uses our WeatherBlox Daily Observations layout. Learn more.

Left ArrowRight Arrow

44.8408, -93.29828

Hourly Observations for May 9, 2016

Temp ( °F °C ) Dew Point ( °F °C ) Humidity (%) Winds ( mph kmh ) Pressure ( in mb ) Visibility ( mi km ) Precip ( " mm )
12:53 am 00:53 Clear 59 15 34 1.1 39 39 E 8 13 29.85 1011 10 16 0.00 0.00
1:53 am 01:53 Clear 57 13.9 34 1.1 42 42 ESE 9 15 29.85 1011 10 16 0.00 0.00
2:53 am 02:53 Clear 57 13.9 35 1.7 44 44 ESE 9 15 29.83 1010 10 16 0.00 0.00
3:53 am 03:53 Clear 55 12.8 36 2.2 49 49 SE 7 11 29.83 1010 10 16 0.00 0.00
4:53 am 04:53 Clear 56 13.3 35 1.7 46 46 ESE 12 19 29.81 1010 10 16 0.00 0.00
5:53 am 05:53 Mostly Sunny 55 12.8 34 1.1 45 45 E 10 17 29.81 1010 10 16 0.00 0.00
6:53 am 06:53 Cloudy 55 12.8 35 1.7 47 47 ESE 14 22 29.83 1010 10 16 0.00 0.00
7:53 am 07:53 Mostly Cloudy 57 13.9 36 2.2 45 45 SE 13 20 29.86 1011 10 16 0.00 0.00
8:53 am 08:53 Mostly Cloudy 60 15.6 40 4.4 47 47 ESE 14 22 29.85 1011 10 16 0.00 0.00
9:53 am 09:53 Mostly Cloudy 62 16.7 40 4.4 44 44 ESE 18 30 29.83 1010 10 16 0.00 0.00
10:53 am 10:53 Mostly Cloudy 66 18.9 38 3.3 36 36 ESE 26 43 29.82 1010 10 16 0.00 0.00
11:53 am 11:53 Cloudy 67 19.4 38 3.3 35 35 SE 23 37 29.82 1010 10 16 0.00 0.00
12:53 pm 12:53 Cloudy with Light Rain 59 15 45 7.2 60 60 SE 23 37 29.83 1010 7 11 0.02 0.51
1:15 pm 13:15 Cloudy with Light Rain 55 12.8 48 8.9 77 77 S 17 28 29.85 1011 7 11 0.01 0.25
1:53 pm 13:53 Cloudy with Light Rain 56 13.3 47 8.3 72 72 SE 15 24 29.84 1011 10 16 0.02 0.51
2:53 pm 14:53 Cloudy with Light Rain 57 13.9 48 8.9 72 72 ESE 12 19 29.85 1011 10 16 0.00 0.03
3:53 pm 15:53 Cloudy 57 13.9 46 7.8 67 67 E 17 28 29.83 1010 10 16 0.00 0.03
4:53 pm 16:53 Cloudy 57 13.9 49 9.4 74 74 ENE 9 15 29.80 1009 10 16 0.15 3.81
5:53 pm 17:53 Cloudy 59 15 49 9.4 69 69 E 9 15 29.79 1009 10 16 0.00 0.00
6:53 pm 18:53 Cloudy 61 16.1 48 8.9 63 63 ESE 14 22 29.79 1009 10 16 0.00 0.00
7:53 pm 19:53 Cloudy 61 16.1 45 7.2 56 56 ESE 20 31 29.80 1009 10 16 0.00 0.00
8:53 pm 20:53 Cloudy with Light Rain 57 13.9 48 8.9 72 72 SE 10 17 29.82 1010 7 11 0.00 0.03
9:53 pm 21:53 Cloudy 55 12.8 49 9.4 80 80 ESE 13 20 29.83 1010 10 16 0.01 0.25
10:53 pm 22:53 Cloudy with Light Rain 54 12.2 49 9.4 83 83 E 12 19 29.85 1011 10 16 0.08 2.03
11:53 pm 23:53 Cloudy with Light Rain 53 11.7 50 10 89 89 E 10 17 29.83 1010 9 14 0.03 0.76

Powered by AerisWeather